Content
SEND FEEDBACK

Daily
Averages
Monthly
Summary
United States of America

MAURICEVILLE, TEXAS


Home > North America > United States > Texas
Elevation: 20 feet     Latitude: 30 14N     Longitude: 093 44W

WEATHER
 
SELECT A DAY
Number of Records: 119,056;   Date Range: 8/25/05 - 12/19/14
 
SHARE

PRINT THIS DATA

[ ← Previous Day ]
WEATHER ALMANAC - OCTOBER 2, 2013
[ Next Day → ]
[ °C ]   °F
Weather ElementAverageHighLow
Temperature78.8 °F87.8 °F (3:35 pm)73.4 °F (5:35 am)
Dewpoint73.2 °F75.9 °F (10:55 am)70 °F (2:55 pm)
Humidity84 %97 % (5:55 am)55 % (3:35 pm)
Barometer29.98 in30.03 in (10:15 am)29.93 in (4:35 pm)
Wind Speed5.7 mph10.4 mph (10:55 am)
Weather ElementAverage
Visibility8.7 mi
Wind DirectionE (88 °)

Weather ElementTotal
Precipitation---
Cooling Degree Days15.6 (Base 65)
Growing Degree Days30.6 (Base 50)
Averaged from 71 records on October 2, 2013
WEATHER CONDITIONS BREAKOUT
WIND DIRECTION BREAKOUT
WEATHER BY HOUR - OCTOBER 2, 2013
[ °C ]   °F
Local TimeTemperatureDewpointHumidityBarometerVisibilityWind DirectionWind SpeedGust SpeedPrecipitationEventsConditions
12:35 AM75.6 °F73.2 °F92 %29.98 in10.0 miEast (80°)6.9 mphClear
12:55 AM75.0 °F73.0 °F94 %29.98 in10.0 miEast (80°)4.6 mphClear
1:15 AM76.1 °F73.8 °F92 %29.98 in10.0 miEast (100°)9.2 mphClear
1:35 AM75.9 °F73.8 °F93 %29.98 in10.0 miEast (100°)8.1 mphClear
1:55 AM76.1 °F74.3 °F94 %29.98 in10.0 miESE (110°)8.1 mphClear
2:15 AM76.1 °F74.1 °F94 %29.98 in10.0 miEast (100°)5.8 mphClear
2:35 AM75.6 °F73.9 °F95 %29.98 in10.0 miEast (80°)3.5 mphScattered Clouds
2:55 AM75.2 °F73.8 °F95 %29.98 in10.0 miENE (70°)3.5 mphScattered Clouds
3:15 AM75.2 °F73.6 °F95 %29.97 in10.0 miCalmScattered Clouds
3:35 AM75.0 °F73.8 °F96 %29.97 in10.0 miENE (60°)3.5 mphScattered Clouds
3:55 AM74.8 °F73.6 °F96 %29.97 in10.0 miENE (70°)3.5 mphScattered Clouds
4:15 AM74.8 °F73.6 °F96 %29.97 in10.0 miENE (60°)4.6 mphScattered Clouds
4:35 AM75.2 °F73.8 °F95 %29.97 in10.0 miCalmMostly Cloudy
4:55 AM74.5 °F73.4 °F96 %29.97 in7.0 miNNE (30°)3.5 mphScattered Clouds
5:15 AM73.6 °F72.5 °F96 %29.97 in4.0 miCalmMostly Cloudy
5:35 AM73.4 °F72.1 °F96 %29.97 in2.5 miCalmOvercast
5:55 AM73.4 °F72.5 °F97 %29.98 in5.0 miENE (60°)3.5 mphOvercast
6:15 AM74.3 °F73.4 °F97 %29.98 in2.0 miENE (60°)5.8 mphOvercast
6:35 AM74.5 °F73.6 °F97 %29.99 in2.5 miENE (60°)5.8 mphOvercast
6:55 AM74.8 °F73.9 °F97 %29.99 in4.0 miENE (60°)5.8 mphOvercast
7:15 AM75.0 °F73.9 °F96 %29.99 in5.0 miENE (60°)6.9 mphOvercast
7:35 AM74.7 °F73.8 °F97 %30.00 in3.0 miNE (50°)6.9 mphOvercast
7:55 AM74.5 °F73.6 °F97 %30.00 in4.0 miNE (50°)6.9 mphOvercast
8:15 AM74.5 °F73.6 °F97 %30.00 in3.0 miNE (50°)5.8 mphOvercast
8:35 AM74.5 °F73.6 °F97 %30.01 in4.0 miENE (60°)8.1 mphOvercast
8:55 AM74.8 °F73.8 °F96 %30.01 in5.0 miENE (60°)9.2 mphOvercast
9:15 AM75.0 °F73.8 °F96 %30.02 in5.0 miENE (60°)9.2 mphOvercast
9:35 AM75.4 °F74.3 °F96 %30.02 in5.0 miENE (70°)8.1 mphOvercast
9:55 AM76.8 °F74.8 °F94 %30.02 in7.0 miENE (70°)6.9 mphOvercast
10:15 AM77.4 °F74.5 °F91 %30.03 in10.0 miENE (70°)8.1 mphOvercast
10:35 AM79.0 °F75.2 °F88 %30.03 in7.0 miEast (80°)8.1 mphOvercast
10:55 AM81.9 °F75.9 °F82 %30.03 in10.0 miEast (100°)10.4 mphMostly Cloudy
11:15 AM82.6 °F75.6 °F79 %30.03 in10.0 miEast (100°)9.2 mphScattered Clouds
11:35 AM78.8 °F72.7 °F81 %30.03 in10.0 miSSE (160°)6.9 mphRainRain
11:55 AM78.1 °F73.4 °F85 %30.02 in10.0 miSSE (150°)5.8 mphMostly Cloudy
12:15 PM82.4 °F72.7 °F72 %30.01 in10.0 miSE (140°)8.1 mphClear
12:35 PM84.4 °F73.9 °F71 %30.01 in10.0 miSE (130°)8.1 mphScattered Clouds
12:55 PM84.0 °F73.4 °F70 %29.99 in10.0 miESE (120°)8.1 mphScattered Clouds
1:15 PM85.3 °F73.0 °F67 %29.98 in10.0 miESE (120°)6.9 mphMostly Cloudy
1:35 PM83.7 °F72.9 °F70 %29.97 in10.0 miSE (130°)5.8 mphMostly Cloudy
1:55 PM86.5 °F72.3 °F62 %29.96 in10.0 miEast (90°)6.9 mphScattered Clouds
2:15 PM87.1 °F72.0 °F61 %29.95 in10.0 miSE (140°)9.2 mphMostly Cloudy
2:35 PM87.1 °F70.9 °F58 %29.95 in10.0 miESE (120°)6.9 mphScattered Clouds
2:55 PM87.3 °F70.0 °F56 %29.95 in10.0 miSE (140°)8.1 mphScattered Clouds
3:15 PM87.3 °F71.1 °F58 %29.95 in10.0 miSouth (170°)8.1 mphClear
3:35 PM87.8 °F70.0 °F55 %29.95 in10.0 miNE (50°)9.2 mphScattered Clouds
3:55 PM86.5 °F70.2 °F58 %29.94 in10.0 miSE (140°)6.9 mphScattered Clouds
4:15 PM87.1 °F71.8 °F60 %29.94 in10.0 miESE (110°)6.9 mphScattered Clouds
4:35 PM86.5 °F70.7 °F59 %29.93 in10.0 miSE (130°)9.2 mphClear
4:55 PM85.3 °F70.0 °F60 %29.94 in10.0 miESE (110°)5.8 mphScattered Clouds
5:15 PM84.2 °F71.6 °F66 %29.94 in10.0 miESE (120°)5.8 mphScattered Clouds
5:35 PM84.6 °F72.7 °F67 %29.94 in10.0 miESE (120°)8.1 mphScattered Clouds
5:55 PM83.3 °F73.4 °F72 %29.94 in10.0 miESE (110°)9.2 mphMostly Cloudy
6:15 PM81.5 °F73.4 °F76 %29.93 in10.0 miSE (130°)6.9 mphScattered Clouds
6:35 PM80.6 °F73.4 °F79 %29.93 in10.0 miSE (130°)5.8 mphClear
6:55 PM79.7 °F73.8 °F82 %29.94 in10.0 miSE (140°)5.8 mphClear
7:15 PM79.0 °F73.4 °F83 %29.95 in10.0 miSE (130°)5.8 mphClear
7:35 PM78.8 °F72.9 °F82 %29.95 in10.0 miSSE (150°)4.6 mphClear
7:55 PM77.9 °F72.7 °F84 %29.95 in10.0 miESE (120°)3.5 mphClear
8:15 PM77.5 °F72.5 °F84 %29.96 in10.0 miESE (120°)3.5 mphClear
8:35 PM77.4 °F72.7 °F85 %29.97 in10.0 miCalmClear
8:55 PM77.2 °F72.7 °F86 %29.98 in10.0 miCalmClear
9:15 PM77.0 °F73.4 °F89 %29.98 in10.0 miCalmClear
9:35 PM77.2 °F73.9 °F90 %29.98 in10.0 miESE (110°)3.5 mphClear
9:55 PM77.9 °F74.3 °F89 %29.98 in10.0 miESE (110°)5.8 mphClear
10:15 PM77.9 °F74.3 °F89 %29.98 in10.0 miESE (110°)4.6 mphClear
10:35 PM77.7 °F74.1 °F89 %29.98 in10.0 miESE (110°)4.6 mphClear
10:55 PM77.4 °F74.1 °F90 %29.98 in10.0 miESE (110°)3.5 mphClear
11:15 PM77.2 °F73.6 °F89 %29.98 in10.0 miEast (100°)3.5 mphClear
11:35 PM77.0 °F73.6 °F89 %29.98 in10.0 miESE (120°)3.5 mphClear
11:55 PM76.6 °F73.6 °F90 %29.98 in10.0 miCalmClear
Hourly data recorded from KORG, located miles away from Mauriceville, Texas







STORIES FROM OUR PARTNERS